Wind_Speed
18 18 17 17 16 16 15 15 14 14 14 14 13 13 13 12 12 12 12 12 11 11 11 11 10 10 10 10 10 10 10 10 11 11 11 12 12 12 12 12 13 13 13
20 19 19 19 18 17 17 16 16 16 16 16 15 15 15 15 14 14 13 13 12 12 12 12 12 12 12 12 12 12 12 13 13 13 13 13 13 13 14 14 14 14 14
22 21 20 20 19 19 19 18 18 18 18 18 17 17 17 16 16 15 15 14 14 13 13 13 13 13 13 14 14 14 14 14 14 15 15 15 15 15 15 15 15 16 15
23 22 22 21 21 21 21 20 20 20 20 19 19 18 18 18 18 17 16 16 15 15 15 15 15 15 15 15 15 16 15 15 16 16 17 17 17 17 17 17 17 17 17
24 24 23 23 22 22 23 22 22 22 21 21 21 20 20 20 19 19 18 18 17 17 17 16 16 16 16 16 17 17 17 17 17 18 18 19 19 19 19 19 19 19 19
25 25 25 24 24 24 24 24 23 23 23 22 22 21 21 21 21 21 21 20 20 20 19 19 18 18 18 19 19 19 19 19 19 19 20 20 21 21 21 21 21 21 22
26 27 26 26 25 25 24 24 24 24 24 24 23 23 23 23 22 22 22 22 22 22 21 21 21 21 21 21 21 21 21 21 21 22 22 22 23 23 23 23 23 23 24
28 28 27 27 27 27 26 26 26 25 25 25 25 25 25 24 24 24 24 24 24 24 24 24 24 24 23 23 23 23 23 23 24 24 23 23 23 24 24 25 25 25 25
29 29 29 28 28 28 28 28 27 27 27 27 27 26 26 27 27 26 26 26 26 26 26 26 26 26 25 25 25 25 25 25 25 25 25 25 25 25 25 26 26 26 26
30 30 31 30 30 29 30 30 29 29 29 29 29 29 28 28 29 29 28 28 28 28 28 28 28 28 28 27 27 27 27 27 26 26 26 27 28 27 27 27 28 28 28
32 32 32 32 32 31 31 31 31 31 31 31 31 31 31 31 31 31 31 31 31 31 31 30 30 30 30 29 29 29 28 28 28 28 28 28 29 29 30 30 30 30 29
34 34 34 34 34 33 33 33 33 33 33 33 32 33 33 33 33 33 33 33 33 32 32 32 32 32 32 31 31 31 31 30 30 30 30 30 30 30 31 32 32 31 31
36 36 36 36 36 36 35 35 35 35 35 35 34 35 35 35 35 35 35 35 35 34 34 35 35 35 34 34 34 33 33 33 33 33 32 32 32 32 33 33 33 33 33
36 36 37 37 37 37 37 36 36 36 36 36 36 36 37 36 36 36 36 36 36 36 37 37 37 36 36 36 36 36 35 35 35 35 35 35 35 34 34 34 34 34 34
36 36 37 37 37 37 37 36 37 37 37 37 37 37 37 38 37 37 37 38 38 38 38 38 38 38 38 38 38 38 37 37 37 38 38 37 37 36 36 36 37 37 36
35 36 36 37 37 37 37 37 37 37 38 38 38 38 38 38 38 38 39 39 39 39 39 39 39 39 39 39 39 39 39 39 39 39 39 39 39 38 38 38 38 39 38
35 36 36 37 37 37 37 37 37 38 38 38 38 38 38 39 39 39 39 40 40 40 40 40 40 40 41 41 40 40 40 40 40 40 40 40 40 39 39 39 39 40 40
36 36 36 37 37 37 38 38 37 38 38 37 38 38 39 39 40 40 40 40 40 40 40 40 41 41 41 42 42 42 41 41 42 41 41 41 41 41 40 40 40 40 41
36 37 37 37 37 38 38 38 38 38 38 38 38 38 39 40 40 41 41 41 41 41 41 41 41 42 42 42 43 43 43 43 43 43 42 42 42 42 41 41 41 42 41
37 37 38 38 38 38 38 38 38 38 39 39 39 39 39 40 41 42 42 42 42 42 42 43 43 43 43 43 44 44 44 44 43 43 43 43 43 43 43 42 43 43 43
37 38 38 38 38 38 38 38 39 39 39 40 40 41 41 41 41 42 43 43 43 44 44 44 44 44 44 44 44 44 44 45 45 45 44 44 43 44 44 43 43 43 44
37 37 38 38 38 39 39 39 40 40 40 40 40 41 42 42 42 42 43 43 44 44 44 45 45 45 45 45 45 45 45 45 45 44 44 44 43 44 44 44 45 45 45
35 36 37 38 38 38 39 39 40 40 41 41 41 41 42 42 43 43 43 43 44 44 45 45 46 46 46 46 45 45 45 45 45 44 45 45 45 45 46 46 46 46 46
34 36 36 37 37 38 38 39 40 41 41 42 42 42 41 42 42 42 43 43 43 44 45 45 46 47 46 46 45 45 45 45 45 45 46 46 46 46 46 47 47 46 47
34 35 36 37 37 38 38 39 39 40 41 41 41 41 41 41 41 41 42 42 43 44 45 45 45 45 46 46 45 45 45 46 46 47 46 46 46 46 47 47 47 47 47
33 34 35 36 37 37 38 38 39 39 39 39 40 40 40 40 40 41 42 42 43 43 44 43 44 44 45 45 45 45 45 46 46 47 47 46 45 45 46 46 46 46 46
Wind_Direction
245 245 245 246 246 245 243 242 241 242 243 244 245 247 246 245 245 246 246 245 245 246 247 248 251 255 258 260 259 260 262 264 265 267 267 268 271 273 274 275 275 275 274
247 247 247 247 247 248 246 245 244 244 245 246 248 249 250 250 249 248 248 247 248 248 249 251 254 257 259 262 262 262 264 266 268 269 269 270 271 273 273 274 275 275 275
246 246 246 247 248 248 248 248 247 247 247 248 249 250 251 251 251 250 249 248 248 250 252 253 256 258 261 264 265 264 266 268 271 271 272 272 271 272 273 274 274 276 276
246 246 246 247 248 249 249 249 249 249 249 249 249 250 250 251 251 251 250 251 251 253 254 256 257 259 261 263 266 265 267 269 271 272 272 272 272 272 273 273 274 274 275
247 246 246 247 249 250 250 250 250 249 251 252 251 250 250 250 251 251 252 253 254 255 257 258 259 261 263 265 266 267 267 268 270 271 272 272 272 272 273 273 273 273 273
247 246 246 247 249 250 251 250 250 251 251 252 253 251 250 250 251 251 253 254 255 256 258 260 261 262 264 266 267 268 269 269 269 271 272 272 272 273 273 273 273 272 272
247 247 246 247 248 250 251 252 252 252 252 252 252 252 250 250 251 252 253 254 255 257 259 261 261 262 263 265 267 269 269 270 270 270 271 270 271 272 272 272 272 272 271
246 247 247 248 249 250 251 251 252 252 253 253 254 254 252 251 252 253 254 255 256 257 259 261 262 263 265 265 266 268 270 269 270 270 270 270 270 270 270 271 272 272 271
247 247 248 249 250 251 251 252 253 253 253 254 254 255 255 254 254 255 256 256 257 258 260 262 262 263 265 266 267 268 269 270 270 270 269 270 270 271 270 271 271 272 272
249 249 249 249 250 252 253 253 254 254 254 254 255 255 256 256 257 256 257 258 259 259 261 262 263 264 265 266 267 268 269 270 270 270 271 270 271 271 271 271 271 271 271
250 251 251 251 251 253 253 254 254 254 255 255 256 256 256 257 257 257 258 259 260 261 262 263 264 264 265 266 267 267 268 269 270 271 270 271 272 271 271 271 271 271 271
252 252 252 252 252 253 255 255 255 256 255 256 256 256 257 257 258 258 258 260 261 262 263 264 265 265 265 265 266 267 268 269 270 271 270 272 274 273 272 271 271 271 271
253 253 253 253 253 254 255 256 256 256 256 256 257 257 258 258 258 259 260 260 261 262 263 265 265 266 266 266 266 267 268 269 270 271 271 272 273 274 274 273 272 272 272
253 253 254 254 254 254 255 255 257 257 257 258 257 258 258 258 259 260 260 261 262 262 264 265 266 266 266 266 267 267 268 268 270 271 271 272 272 273 273 273 272 271 272
255 255 255 255 255 255 255 255 256 257 257 257 258 258 258 259 259 259 261 262 262 263 264 265 265 266 266 267 267 268 268 269 270 271 271 272 272 272 273 273 272 271 272
255 256 256 256 256 256 257 256 257 258 257 257 257 258 258 259 260 260 261 261 263 264 265 265 265 265 266 267 267 268 268 269 270 271 272 272 272 272 272 272 272 271 271
256 256 257 257 257 257 257 257 258 258 258 257 258 258 259 259 260 260 261 262 262 264 265 264 264 265 265 266 267 267 268 269 270 272 272 271 271 272 272 272 272 272 271
256 257 258 258 258 258 257 257 258 259 258 258 259 259 259 260 260 261 261 262 263 264 264 265 265 265 265 266 266 267 268 268 270 271 271 271 271 272 273 272 272 273 273
257 258 258 258 258 258 258 258 258 259 260 260 260 261 260 260 261 261 262 262 263 264 264 265 265 265 265 266 266 267 268 268 269 270 270 271 271 271 272 271 272 274 274
258 258 258 258 259 259 259 258 259 260 261 261 261 261 261 261 261 262 263 263 264 264 264 264 265 266 266 266 266 267 267 268 269 269 269 270 270 271 271 271 272 274 275
260 259 259 258 259 259 259 259 259 260 262 262 262 262 262 262 262 263 264 264 264 264 264 264 265 265 265 266 267 267 267 268 269 269 269 269 270 270 271 271 272 273 274
259 259 259 259 259 259 260 260 260 261 262 263 263 263 263 263 263 264 264 265 265 265 265 265 265 265 265 266 266 266 267 267 267 268 268 268 269 270 271 271 272 273 273
259 259 258 258 259 260 260 261 262 262 263 263 264 264 263 264 264 264 264 265 265 265 265 265 265 266 266 266 266 267 267 267 267 267 267 267 268 269 271 272 273 273 272
258 258 258 259 259 260 261 262 263 264 264 265 264 264 264 264 264 265 265 265 265 265 265 265 266 266 266 266 267 268 268 268 267 268 267 268 268 269 271 272 273 274 273
259 259 259 259 259 261 262 263 265 265 265 265 264 264 264 264 264 265 265 265 265 265 266 265 265 265 266 267 267 268 269 269 269 269 268 268 268 269 271 272 273 274 273
262 261 260 260 261 262 263 265 266 266 266 264 264 264 264 265 265 265 266 266 267 267 266 265 265 265 267 267 268 270 270 270 269 269 268 267 267 269 270 271 272 273 272
Height
5842 5842 5843 5844 5844 5845 5845 5846 5847 5847 5848 5848 5849 5849 5850 5850 5850 5850 5850 5851 5851 5851 5851 5851 5851 5851 5851 5851 5851 5851 5851 5851 5851 5850 5850 5850 5850 5850 5849 5849 5849 5849 5848
5838 5839 5840 5840 5841 5842 5843 5843 5844 5844 5845 5846 5846 5847 5847 5847 5848 5848 5848 5848 5848 5848 5849 5849 5849 5849 5849 5849 5849 5849 5849 5848 5848 5848 5848 5848 5847 5847 5847 5847 5846 5846 5846
5835 5835 5836 5837 5838 5839 5839 5840 5841 5841 5842 5843 5843 5844 5844 5844 5845 5845 5845 5845 5846 5846 5846 5846 5846 5846 5846 5846 5846 5846 5846 5846 5845 5845 5845 5844 5844 5844 5844 5844 5844 5843 5843
5830 5831 5832 5833 5834 5835 5836 5836 5837 5838 5838 5839 5840 5840 5841 5841 5841 5842 5842 5842 5843 5843 5843 5843 5843 5843 5843 5843 5843 5843 5843 5842 5842 5842 5841 5841 5841 5841 5841 5840 5840 5840 5840
5826 5827 5828 5829 5830 5831 5831 5832 5833 5834 5834 5835 5835 5836 5837 5837 5838 5838 5838 5839 5839 5839 5839 5840 5840 5840 5840 5840 5840 5839 5839 5839 5839 5838 5838 5837 5837 5837 5837 5837 5837 5836 5836
5821 5822 5823 5824 5825 5826 5827 5828 5828 5829 5830 5830 5831 5832 5832 5833 5833 5834 5834 5835 5835 5835 5836 5836 5836 5836 5836 5836 5836 5836 5835 5835 5835 5834 5834 5833 5833 5833 5833 5833 5832 5832 5832
5816 5817 5818 5820 5821 5821 5822 5823 5824 5824 5825 5826 5826 5827 5827 5828 5829 5829 5830 5830 5831 5831 5831 5832 5832 5832 5832 5832 5832 5831 5831 5831 5830 5830 5829 5829 5829 5828 5828 5828 5828 5828 5828
5810 5812 5813 5814 5815 5816 5817 5818 5819 5819 5820 5821 5821 5822 5823 5823 5824 5824 5825 5825 5826 5826 5826 5827 5827 5827 5827 5827 5827 5827 5826 5826 5826 5825 5825 5824 5824 5824 5823 5823 5823 5823 5823
5804 5806 5807 5808 5810 5811 5811 5812 5813 5814 5815 5815 5816 5817 5817 5818 5819 5819 5820 5820 5821 5821 5821 5821 5822 5822 5822 5822 5822 5821 5821 5821 5821 5820 5820 5819 5819 5819 5818 5818 5818 5818 5817
5798 5799 5801 5802 5803 5804 5805 5806 5807 5808 5809 5809 5810 5811 5812 5812 5813 5813 5814 5814 5815 5815 5815 5816 5816 5816 5816 5816 5816 5816 5815 5815 5815 5815 5814 5814 5813 5813 5813 5813 5812 5812 5812
5792 5793 5794 5795 5796 5798 5798 5799 5800 5801 5802 5803 5804 5805 5805 5806 5806 5807 5808 5808 5808 5809 5809 5809 5810 5810 5810 5810 5809 5809 5809 5809 5809 5809 5808 5808 5807 5807 5807 5807 5806 5806 5805
5784 5785 5787 5788 5789 5790 5791 5792 5793 5794 5795 5796 5797 5797 5798 5799 5799 5800 5801 5801 5802 5802 5802 5802 5803 5803 5803 5803 5803 5803 5803 5802 5802 5802 5802 5801 5801 5801 5800 5800 5799 5799 5799
5777 5778 5779 5780 5781 5783 5784 5785 5785 5786 5787 5788 5789 5790 5790 5791 5792 5793 5793 5794 5794 5794 5795 5795 5795 5795 5795 5796 5796 5796 5795 5795 5795 5795 5794 5794 5794 5793 5793 5793 5792 5792 5792
5769 5770 5771 5772 5773 5774 5775 5776 5777 5778 5779 5780 5781 5782 5782 5783 5784 5785 5785 5786 5786 5786 5787 5787 5787 5787 5787 5787 5787 5787 5787 5787 5787 5787 5787 5786 5786 5786 5785 5785 5784 5784 5784
5761 5762 5763 5763 5765 5766 5767 5768 5769 5770 5771 5772 5773 5773 5774 5775 5776 5776 5777 5777 5778 5778 5778 5778 5779 5779 5779 5779 5779 5779 5779 5779 5778 5778 5778 5778 5777 5777 5777 5776 5776 5775 5775
5752 5753 5754 5755 5756 5757 5758 5759 5760 5761 5762 5763 5764 5765 5766 5766 5767 5768 5768 5769 5769 5769 5770 5770 5770 5770 5770 5770 5770 5770 5770 5770 5769 5769 5769 5769 5768 5768 5768 5767 5766 5766 5766
5744 5745 5746 5747 5748 5749 5750 5751 5752 5753 5754 5755 5755 5756 5757 5757 5758 5759 5759 5760 5760 5760 5760 5760 5761 5761 5761 5761 5761 5761 5761 5760 5760 5760 5759 5759 5759 5758 5758 5757 5757 5756 5756
5735 5736 5737 5738 5739 5740 5741 5742 5743 5744 5745 5746 5747 5747 5748 5748 5749 5749 5750 5750 5751 5751 5751 5751 5751 5751 5751 5751 5751 5751 5751 5751 5750 5750 5749 5749 5749 5749 5748 5747 5747 5746 5746
5726 5727 5728 5729 5731 5732 5732 5733 5734 5735 5736 5737 5737 5738 5738 5739 5739 5740 5740 5741 5741 5741 5741 5741 5741 5741 5741 5741 5741 5741 5741 5740 5740 5740 5739 5739 5738 5738 5738 5737 5737 5736 5736
5717 5718 5720 5721 5722 5722 5723 5724 5725 5726 5727 5728 5728 5729 5729 5729 5730 5730 5730 5730 5730 5731 5731 5731 5731 5731 5731 5731 5731 5730 5730 5730 5729 5729 5729 5728 5728 5728 5727 5727 5727 5726 5726
5708 5709 5710 5711 5712 5713 5714 5715 5716 5717 5718 5718 5718 5719 5719 5719 5719 5719 5720 5720 5720 5720 5720 5720 5720 5720 5720 5720 5720 5720 5720 5719 5719 5718 5718 5718 5717 5717 5717 5716 5716 5715 5715
5699 5700 5701 5702 5703 5704 5705 5706 5707 5707 5708 5708 5708 5708 5709 5709 5709 5709 5709 5709 5709 5709 5709 5709 5709 5709 5709 5708 5708 5708 5709 5709 5708 5708 5707 5706 5706 5706 5705 5705 5704 5704 5703
5690 5690 5691 5692 5693 5694 5695 5696 5697 5697 5698 5698 5698 5698 5698 5698 5698 5698 5699 5699 5698 5698 5698 5698 5698 5698 5697 5697 5696 5696 5696 5697 5697 5697 5696 5696 5695 5695 5694 5693 5693 5692 5691
5680 5681 5681 5683 5684 5684 5685 5686 5687 5687 5688 5688 5688 5687 5687 5687 5687 5688 5688 5687 5687 5687 5687 5686 5686 5686 5686 5686 5685 5685 5685 5684 5685 5685 5685 5684 5683 5683 5682 5681 5681 5680 5679
5671 5671 5672 5673 5674 5675 5675 5676 5676 5677 5677 5677 5677 5677 5677 5677 5677 5677 5676 5676 5676 5676 5675 5675 5675 5674 5674 5674 5674 5673 5673 5672 5671 5672 5672 5672 5671 5670 5669 5669 5668 5668 5666
5662 5662 5663 5663 5664 5665 5665 5666 5666 5666 5666 5666 5666 5666 5666 5666 5666 5666 5666 5665 5665 5664 5664 5663 5663 5663 5663 5662 5662 5661 5660 5660 5659 5659 5659 5659 5659 5658 5657 5656 5656 5655 5653